Location: Champaign/Urbana Astronomical Society Observatory
(40.0333°N, 88.2833°W)
Time: 09:31:59
(UTC-05:00)

OTV 5 (USA 277) - Visible Passes

Search period start: 25 March 2019 00:00
Search period end: 04 April 2019 00:00
Orbit: 315 x 320 km, 54.5° (Epoch: 14 March)

Date Brightness Start Highest point End Pass type
(mag) Time Alt. Az. Time Alt. Az. Time Alt. Az.
30 Mar ? 05:57:55 10° S 06:00:14 26° SE 06:02:34 10° ENE visible
01 Apr ? 04:54:56 15° SE 04:55:26 15° SE 04:57:10 10° E visible
02 Apr ? 05:09:27 39° S 05:09:58 46° SE 05:12:35 10° ENE visible
03 Apr ? 05:23:50 35° W 05:24:38 51° NW 05:27:17 10° NE visible
